Regional Weather Roundup
Issued by NWS Midland/Odessa, TX

Home | Current Version | Previous Version | Text Only | Print | Product List | Glossary On
Versions: 1 2 3 4 5 6 7 8 9 10 11 12 13 14 15 16 17 18 19 20 21 22 23 24 25 26 27 28 29 30 31 32 33 34 35 36 37 38 39 40 41 42 43 44 45 46 47 48 49 50
825
ASUS44 KMAF 172210
RWRMAF
MIDLAND AREA WEATHER ROUNDUP
NATIONAL WEATHER SERVICE MIDLAND TX
500 PM CDT TUE OCT 17 2017

...IN SOUTHWEST TEXAS AND SOUTHEAST NEW MEXICO...

CITY           SKY/WX    TMP DP  RH WIND       PRES   REMARKS
ALPINE         SUNNY     81  40  22 SW12      30.26S
ANDREWS        FAIR      79  40  25 S9        30.16S
ARTESIA        SUNNY     81  36  19 CALM      30.12F
BIG SPRING     SUNNY     79  36  21 S9        30.17F
CARLSBAD       SUNNY     81  46  29 SE10      30.10F
DRYDEN           N/A     78  40  25 SE8       30.14F
FORT STOCKTON  SUNNY     82  43  25 E13       30.13F
GUAD PASS      SUNNY     78  38  23 SW13G22   30.26F
HOBBS          SUNNY     79  41  25 S13       30.15F
LAMESA         FAIR      77  39  25 SE17G25   30.15F
MARFA          SUNNY     78  42  27 S5        30.25S
MIDLAND AIRPK  SUNNY     80  36  20 S10       30.15F
MIDLAND INTL   SUNNY     80  36  20 S9        30.15F
ODESSA         NOT AVBL
PECOS          SUNNY     81  51  35 E9        30.11F
PRESIDIO       FAIR      85  44  23 CALM      30.14F
SEMINOLE       SUNNY     81  40  23 S12       30.16S
SNYDER         SUNNY     79  33  18 SW9       30.14F
WINK           SUNNY     81  46  29 SE8       30.11F
$$
...OTHER STATIONS IN TEXAS...

CITY           SKY/WX    TMP DP  RH WIND       PRES   REMARKS
ABILENE        SUNNY     78  35  21 SW13      30.14F
AMARILLO       SUNNY     81  37  20 S17       30.08F
AUSTIN         SUNNY     77  45  32 VRB3      30.16F
BROWNSVILLE    SUNNY     81  63  54 NE14G22   30.11F
CORPUS CHRISTI SUNNY     81  47  30 NE6       30.13F
DALLAS FTW     SUNNY     76  40  27 SE7       30.15F
DEL RIO        SUNNY     78  43  28 SE8       30.14F
EL PASO        MOSUNNY   83  41  22 CALM      30.15F
HOUSTON INT    SUNNY     78  45  30 NE10      30.14F
LUBBOCK        MOSUNNY   81  37  20 S14G23    30.12F
SAN ANGELO     SUNNY     81  33  17 S9        30.14F
SAN ANTONIO    SUNNY     77  43  29 CALM      30.16F
WACO           SUNNY     76  40  27 S6        30.16F
WICHITA FALLS  SUNNY     73  46  38 S20       30.07F
$$
...OTHER LOCATIONS IN NEW MEXICO...

CITY           SKY/WX    TMP DP  RH WIND       PRES   REMARKS
ALAMOGORDO     SUNNY     81  39  22 CALM      30.17F
ALBUQUERQUE    PTSUNNY   74  23  15 VRB5      30.22F
CANNON AFB     SUNNY     79  37  22 S14       30.14F
CLOVIS         SUNNY     79  38  22 SW15      30.14F
HOLLOMAN AFB   SUNNY     82  39  22 N6        30.19
ROSWELL        SUNNY     81  34  18 S13       30.12F
RUIDOSO        SUNNY     72  30  21 NW12G21   30.32S
SANTA FE       SUNNY     70  26  19 SW8       30.26S
TRUTH OR CONSE SUNNY     80  38  22 S7        30.18F
TUCUMCARI      SUNNY     85  33  15 W10       30.06F
$$




USA.gov is the U.S. government's official web portal to all federal, state and local government web resources and services.